GFSSGP_con_mucape_057.txt.gz
CAPE
0 0 0 0 0 0 0 0 0 0 0 0 0 0 0 0 0 39 561 734 753 603 497 303 911 1126 1061 929 949 996 832 115 33 1 2 2 1 1 1 8 40 247 148 109 43 25 18 6 2
0 0 0 0 0 0 0 0 0 0 0 0 0 0 0 0 1 279 647 675 715 725 745 525 851 1363 1111 1095 1160 1174 892 170 43 1 0 0 0 0 1 6 62 176 104 43 29 14 8 1 0
0 0 0 0 0 0 0 0 0 0 0 0 0 0 0 0 26 495 763 635 729 685 647 841 1079 1439 1192 1286 1159 1167 942 347 138 51 3 0 0 0 1 3 12 78 44 25 12 7 1 0 0
0 0 0 0 0 0 0 0 0 0 0 0 0 0 0 0 224 173 736 674 763 618 632 652 1249 1320 1320 1349 1071 873 939 289 237 103 4 0 0 0 0 2 10 12 10 8 4 3 2 2 3
0 0 0 0 0 0 0 0 0 0 0 0 0 0 0 0 0 375 679 639 700 749 759 609 1099 1191 1343 1566 1235 1100 975 547 285 119 16 0 0 0 0 0 6 6 2 1 1 1 1 3 1
0 0 0 0 0 0 0 0 0 0 0 0 0 0 0 0 3 515 627 643 643 638 697 523 703 706 1075 1332 1184 977 746 768 539 175 27 0 0 0 0 0 0 0 0 0 0 0 1 3 0
0 0 0 0 0 0 0 0 0 0 0 0 0 0 0 0 0 425 450 601 630 747 640 789 725 665 770 796 736 669 681 758 577 397 196 67 0 0 0 0 0 0 0 0 0 0 0 2 0
0 0 0 0 0 0 0 0 0 0 0 0 0 0 0 0 10 449 445 407 476 641 812 1214 673 535 423 557 615 467 446 479 432 283 44 0 0 0 0 0 0 0 0 0 0 0 2 1 0
0 0 0 0 0 0 0 0 0 0 0 0 0 0 0 0 31 599 517 437 471 612 581 610 725 570 537 466 465 406 422 354 237 55 0 0 0 0 0 0 0 0 0 0 0 0 0 0 0
0 0 0 0 0 0 0 0 0 0 0 0 0 0 0 0 38 369 519 603 596 629 667 683 678 893 646 661 545 420 543 501 384 120 0 12 6 6 0 0 0 0 0 0 0 0 0 0 0
0 0 0 0 0 0 0 0 0 0 0 0 0 0 0 0 0 38 300 331 589 519 852 646 621 675 591 512 668 677 629 661 539 344 87 155 47 3 0 0 0 1 0 0 0 0 0 0 0
0 0 0 0 0 0 0 0 0 0 0 0 0 0 0 0 0 1 112 259 273 437 440 461 462 611 615 778 557 531 650 760 730 629 442 400 162 11 9 1 3 4 4 1 0 0 0 0 0
0 0 0 0 0 0 0 0 0 0 0 0 0 0 0 0 0 0 6 112 190 238 372 116 215 604 533 359 192 466 745 724 609 750 604 458 211 102 16 8 5 4 2 2 0 0 0 0 0
0 0 0 0 0 0 0 0 0 0 0 0 0 0 0 0 0 0 0 9 96 225 280 175 317 191 149 160 209 54 212 474 824 810 728 574 265 34 6 6 6 10 12 2 3 2 0 0 0
0 0 0 0 0 0 0 0 0 0 0 0 0 0 0 0 0 0 0 0 50 223 157 220 23 135 23 13 110 206 215 65 223 530 579 586 369 54 14 26 6 3 19 12 15 3 0 0 0
0 0 0 0 0 0 0 0 0 0 0 0 0 0 0 0 0 0 0 0 0 78 112 103 2 3 103 1 7 12 102 179 175 228 352 724 452 75 42 37 33 32 32 22 3 13 11 0 1
0 0 0 0 0 0 0 0 0 0 0 0 0 0 0 0 0 0 0 0 0 0 2 36 0 0 0 6 0 0 1 28 44 34 147 276 467 59 53 63 53 44 45 31 0 18 4 0 0
0 0 0 0 0 0 0 0 0 0 0 0 0 0 0 0 0 0 0 0 0 0 0 0 0 0 0 0 0 0 0 5 4 13 10 45 84 22 31 44 62 56 22 13 7 18 12 1 0
0 0 0 0 0 0 0 0 0 0 0 0 0 0 0 0 0 0 0 0 0 0 0 0 0 0 0 0 0 0 0 0 1 2 10 17 12 7 24 22 60 64 47 21 19 10 1 0 0
0 0 0 0 0 0 0 0 0 0 0 0 0 0 0 0 0 0 0 0 0 0 0 0 0 0 0 0 0 0 0 0 0 3 1 1 0 0 7 5 18 44 62 44 11 5 10 1 0
0 0 0 0 0 0 0 0 0 0 0 0 0 0 0 0 0 0 0 0 0 0 0 0 0 0 0 0 0 0 0 0 0 0 1 0 0 0 0 8 33 37 59 14 15 26 9 11 7
0 0 0 0 0 0 0 0 0 0 0 0 0 0 0 0 0 0 0 0 0 0 0 0 0 0 0 0 0 0 0 0 0 0 0 0 0 0 1 11 37 45 2 50 20 22 8 11 0
0 0 0 0 0 0 0 0 0 0 0 0 0 0 0 0 0 0 0 0 0 0 0 0 0 0 0 0 0 0 0 0 0 0 0 0 0 2 1 16 7 5 39 51 32 18 17 15 3
0 0 0 0 0 0 0 0 0 0 0 0 0 0 0 0 0 0 0 0 0 0 0 0 0 0 0 0 0 0 0 0 0 0 0 0 0 3 1 6 24 9 3 27 5 22 21 19 11
0 0 0 0 0 0 0 0 0 0 0 0 0 0 0 0 0 0 0 0 0 0 0 0 0 0 0 0 0 0 0 0 0 0 0 0 0 3 0 4 10 9 5 15 10 30 13 18 11
0 0 0 0 0 0 0 0 0 0 0 0 0 0 0 0 0 0 0 0 0 0 0 0 0 0 0 0 0 0 0 0 0 0 0 0 0 2 3 9 16 13 10 12 8 10 9 15 14
0 0 0 0 0 0 0 0 0 0 0 0 0 0 0 0 0 0 0 0 0 0 0 0 0 0 0 0 0 0 0 0 0 0 0 0 0 0 0 2 5 14 15 15 18 10 14 13 5
0 0 0 0 0 0 0 0 0 0 0 0 0 0 0 0 0 0 0 0 0 0 0 0 0 0 0 0 0 0 0 0 0 0 0 0 0 0 0 0 0 14 4 6 0 0 10 10 14
0 0 0 0 0 0 0 0 0 0 0 0 0 0 0 0 0 0 0 0 0 0 0 0 0 0 0 0 0 0 0 0 0 0 0 0 0 0 0 0 3 8 8 1 0 4 21 14 13
0 0 0 0 0 0 0 0 0 0 0 0 0 0 0 0 0 0 0 0 0 0 0 0 0 0 0 0 0 0 0 0 0 0 0 0 0 0 0 0 0 7 12 0 0 4 3 12 13

GFSSGP_con_mucape_060.txt.gz
CAPE
0 0 0 0 0 0 0 0 0 0 0 0 0 0 0 0 1 306 420 490 229 101 174 339 904 986 868 804 826 758 298 46 19 4 4 3 3 6 0 49 530 339 29 19 14 16 5 1 0
0 0 0 0 0 0 0 0 0 0 0 0 0 0 0 0 87 442 649 780 425 271 275 269 791 1200 875 752 914 774 332 50 1 0 0 0 2 7 4 156 356 104 23 15 14 9 2 0 0
0 0 0 0 0 0 0 0 0 0 0 0 0 0 0 0 281 614 635 648 572 637 539 449 975 1213 941 752 826 817 489 227 38 0 0 0 1 6 5 134 81 27 12 14 8 4 2 0 0
0 0 0 0 0 0 0 0 0 0 0 0 0 0 0 0 310 628 573 627 555 887 688 604 1187 1308 1188 909 991 922 480 184 18 2 0 0 0 3 7 20 13 5 10 6 8 6 4 1 0
0 0 0 0 0 0 0 0 0 0 0 0 0 0 0 90 179 614 567 613 538 579 717 794 1052 1224 1329 1252 1129 991 619 383 111 2 0 0 0 1 8 12 7 5 4 6 4 4 1 0 0
0 0 0 0 0 0 0 0 0 0 0 0 0 0 0 0 136 531 561 532 526 697 628 702 822 867 1043 1200 1072 902 722 641 289 29 0 0 0 0 1 2 0 0 0 1 3 4 1 0 0
0 0 0 0 0 0 0 0 0 0 0 0 0 0 0 0 107 422 496 450 497 579 442 414 594 683 817 786 636 703 722 607 360 171 30 0 0 0 0 0 0 0 0 0 2 3 0 0 0
0 0 0 0 0 0 0 0 0 0 0 0 0 0 0 0 33 321 380 417 544 492 613 461 539 497 581 477 468 414 444 368 278 79 0 0 0 0 0 0 0 0 0 0 3 2 0 0 0
0 0 0 0 0 0 0 0 0 0 0 0 0 0 0 0 165 253 257 344 402 486 614 751 541 402 293 407 334 323 311 231 112 0 0 0 0 0 0 0 0 0 0 0 1 0 0 0 0
0 0 0 0 0 0 0 0 0 0 0 0 0 0 0 0 179 366 396 260 248 393 426 798 744 391 318 267 287 328 255 141 45 0 0 0 0 0 0 0 0 0 0 0 0 0 0 0 0
0 0 0 0 0 0 0 0 0 0 0 0 0 0 0 0 48 286 300 253 278 517 358 430 462 543 470 759 411 295 318 268 104 2 0 7 0 0 0 0 0 0 0 0 0 0 0 0 0
0 0 0 0 0 0 0 0 0 0 0 0 0 0 0 0 0 89 285 318 411 362 391 501 609 486 614 613 398 360 328 310 253 26 0 20 4 0 0 0 0 0 3 0 0 0 0 0 0
0 0 0 0 0 0 0 0 0 0 0 0 0 0 0 0 0 0 8 142 176 404 308 315 429 486 376 805 433 362 323 330 319 215 39 78 2 1 0 0 0 4 6 2 1 0 0 0 0
0 0 0 0 0 0 0 0 0 0 0 0 0 0 0 0 0 0 0 33 90 156 341 355 331 395 421 550 483 380 445 407 329 305 199 159 26 5 1 0 5 4 6 2 6 2 2 2 0
0 0 0 0 0 0 0 0 0 0 0 0 0 0 0 0 0 0 0 0 46 103 176 288 174 188 401 413 221 117 66 244 422 384 314 167 69 9 0 6 8 6 2 2 4 2 6 9 2
0 0 0 0 0 0 0 0 0 0 0 0 0 0 0 0 0 0 0 0 0 25 135 267 206 51 167 127 98 125 67 1 56 145 357 268 165 67 3 10 6 6 4 12 12 15 14 14 5
0 0 0 0 0 0 0 0 0 0 0 0 0 0 0 0 0 0 0 0 0 0 114 128 166 96 44 36 16 35 61 57 9 0 57 266 261 155 17 2 22 18 15 30 18 7 4 7 12
0 0 0 0 0 0 0 0 0 0 0 0 0 0 0 0 0 0 0 0 0 0 19 86 116 67 0 2 23 0 1 0 17 19 7 86 276 207 64 20 25 37 34 48 46 39 12 14 14
0 0 0 0 0 0 0 0 0 0 0 0 0 0 0 0 0 0 0 0 0 0 0 0 32 22 0 0 0 0 0 0 0 2 4 48 113 93 23 13 15 35 41 55 27 20 4 8 10
0 0 0 0 0 0 0 0 0 0 0 0 0 0 0 0 0 0 0 0 0 0 0 0 0 0 0 0 0 0 0 0 0 0 0 2 10 8 13 9 0 13 40 32 40 7 11 2 10
0 0 0 0 0 0 0 0 0 0 0 0 0 0 0 0 0 0 0 0 0 0 0 0 0 0 0 0 0 0 0 0 0 0 0 0 3 11 7 9 2 1 23 19 19 17 47 17 5
0 0 0 0 0 0 0 0 0 0 0 0 0 0 0 0 0 0 0 0 0 0 0 0 0 0 0 0 0 0 0 0 0 0 0 0 3 8 6 6 3 0 0 10 16 35 45 33 5
0 0 0 0 0 0 0 0 0 0 0 0 0 0 0 0 0 0 0 0 0 0 0 0 0 0 0 0 0 0 0 0 0 0 0 0 0 1 4 7 8 0 2 4 8 21 7 12 10
0 0 0 0 0 0 0 0 0 0 0 0 0 0 0 0 0 0 0 0 0 0 0 0 0 0 0 0 0 0 0 0 0 0 0 0 0 0 0 4 3 6 11 24 21 29 22 47 39
0 0 0 0 0 0 0 0 0 0 0 0 0 0 0 0 0 0 0 0 0 0 0 0 0 0 0 0 0 0 0 0 0 0 0 0 0 0 0 3 1 5 6 5 17 5 25 49 13
0 0 0 0 0 0 0 0 0 0 0 0 0 0 0 0 0 0 0 0 0 0 0 0 0 0 0 0 0 0 0 0 0 0 0 0 0 0 0 0 5 6 7 10 25 12 15 2 9
0 0 0 0 0 0 0 0 0 0 0 0 0 0 0 0 0 0 0 0 0 0 0 0 0 0 0 0 0 0 0 0 0 0 0 0 0 0 0 0 0 7 5 5 8 10 9 2 12
0 0 0 0 0 0 0 0 0 0 0 0 0 0 0 0 0 0 0 0 0 0 0 0 0 0 0 0 0 0 0 0 0 0 0 0 0 0 0 0 0 0 6 10 16 9 20 24 3
0 0 0 0 0 0 0 0 0 0 0 0 0 0 0 0 0 0 0 0 0 0 0 0 0 0 0 0 0 0 0 0 0 0 0 0 0 0 0 0 0 0 6 10 26 10 44 19 7
0 0 0 0 0 0 0 0 0 0 0 0 0 0 0 0 0 0 0 0 0 0 0 0 0 0 0 0 0 0 0 0 0 0 0 0 0 0 0 0 0 0 0 6 25 10 29 5 0

GFSSGP_con_mucape_063.txt.gz
CAPE
0 0 0 0 0 0 0 0 0 0 0 0 0 0 0 0 84 78 224 53 28 86 150 552 862 1104 758 750 721 358 278 36 13 9 5 6 3 82 302 170 288 27 15 18 12 2 0 1 30
0 0 0 0 0 0 0 0 0 0 0 0 0 0 0 27 166 381 220 125 56 133 157 463 805 1074 993 744 690 341 175 3 1 1 2 4 4 118 266 72 185 18 19 14 9 1 0 10 33
0 0 0 0 0 0 0 0 0 0 0 0 0 0 0 137 484 537 577 437 205 177 122 372 873 1048 983 880 751 451 259 13 0 0 0 3 5 150 134 37 27 15 13 9 6 4 3 8 16
0 0 0 0 0 0 0 0 0 0 0 0 0 0 0 68 581 596 483 450 409 472 302 461 1014 1100 985 981 828 612 308 34 0 0 0 2 3 75 16 11 4 8 9 10 6 4 2 8 28
0 0 0 0 0 0 0 0 0 0 0 0 0 0 5 388 482 591 590 550 599 581 407 702 961 1128 1005 1049 939 716 450 111 0 0 0 1 5 11 7 4 3 4 4 5 1 2 1 0 16
0 0 0 0 0 0 0 0 0 0 0 0 0 0 0 351 527 575 585 490 700 549 536 663 799 963 954 839 840 709 524 329 41 0 0 0 3 6 2 1 1 2 2 1 1 2 0 1 13
0 0 0 0 0 0 0 0 0 0 0 0 0 0 0 18 471 538 574 487 640 593 543 537 591 692 724 735 626 551 556 316 121 5 0 3 6 8 0 0 0 0 1 3 1 0 0 0 5
0 0 0 0 0 0 0 0 0 0 0 0 0 0 0 0 392 463 454 458 582 471 455 456 491 454 613 497 456 394 305 180 111 6 0 0 0 0 0 0 0 0 1 3 0 0 0 0 0
0 0 0 0 0 0 0 0 0 0 0 0 0 0 0 0 281 395 414 366 452 409 284 354 433 399 444 305 272 319 215 98 0 0 0 0 0 0 0 0 0 0 2 1 0 0 0 0 0
0 0 0 0 0 0 0 0 0 0 0 0 0 0 0 40 220 326 326 375 382 459 428 389 408 295 350 311 267 236 160 62 0 0 0 0 0 0 0 0 0 0 0 0 0 0 0 0 0
0 0 0 0 0 0 0 0 0 0 0 0 0 0 0 60 140 152 193 336 452 320 330 489 473 309 233 254 245 235 184 81 0 0 0 0 0 0 0 0 0 0 0 0 0 0 0 0 0
0 0 0 0 0 0 0 0 0 0 0 0 0 0 0 3 181 166 193 187 242 359 320 349 376 399 326 291 214 250 186 93 4 1 0 0 0 0 0 0 0 0 0 0 0 0 0 0 0
0 0 0 0 0 0 0 0 0 0 0 0 0 0 0 0 24 205 111 217 190 347 327 315 325 354 366 379 303 241 185 172 58 0 8 0 0 3 0 0 0 0 0 0 0 0 0 0 0
0 0 0 0 0 0 0 0 0 0 0 0 0 0 0 0 0 13 79 17 202 246 279 407 513 471 369 365 440 474 198 191 138 60 4 45 2 24 0 2 0 0 0 2 2 3 0 3 0
0 0 0 0 0 0 0 0 0 0 0 0 0 0 0 0 0 0 0 7 50 228 284 198 396 559 512 334 303 382 241 193 173 228 119 91 20 9 9 4 4 3 2 3 2 4 0 2 4
0 0 0 0 0 0 0 0 0 0 0 0 0 0 0 0 0 0 0 0 0 22 99 286 222 241 231 353 316 108 470 395 303 247 244 192 153 56 128 13 7 3 2 2 9 3 5 9 1
0 0 0 0 0 0 0 0 0 0 0 0 0 0 0 0 0 0 0 0 0 3 39 155 245 285 253 208 144 305 363 249 307 385 370 306 254 177 114 42 22 20 3 6 3 7 4 6 6
0 0 0 0 0 0 0 0 0 0 0 0 0 0 0 0 0 0 0 0 0 0 9 75 166 212 208 122 265 249 107 66 13 0 22 191 259 232 128 220 31 23 19 1 6 10 7 16 8
0 0 0 0 0 0 0 0 0 0 0 0 0 0 0 0 0 0 0 0 0 0 0 24 135 185 162 81 52 115 45 80 79 43 0 0 95 125 215 36 85 41 20 14 9 14 21 18 5
0 0 0 0 0 0 0 0 0 0 0 0 0 0 0 0 0 0 0 0 0 0 0 0 61 107 97 80 9 3 9 1 6 1 4 7 1 10 130 59 30 41 23 23 24 16 14 26 7
0 0 0 0 0 0 0 0 0 0 0 0 0 0 0 0 0 0 0 0 0 0 0 0 7 62 76 46 18 0 0 0 0 0 0 0 0 1 11 14 7 67 50 18 21 13 39 10 16
0 0 0 0 0 0 0 0 0 0 0 0 0 0 0 0 0 0 0 0 0 0 0 0 0 0 24 20 0 0 0 0 0 0 0 0 0 0 6 4 43 12 10 11 14 32 35 26 3
0 0 0 0 0 0 0 0 0 0 0 0 0 0 0 0 0 0 0 0 0 0 0 0 0 0 0 0 0 0 0 0 0 0 0 0 0 0 3 5 8 5 8 4 10 19 30 28 10
0 0 0 0 0 0 0 0 0 0 0 0 0 0 0 0 0 0 0 0 0 0 0 0 0 0 0 0 0 0 0 0 0 0 0 0 0 0 0 3 4 7 9 10 7 16 10 19 23
0 0 0 0 0 0 0 0 0 0 0 0 0 0 0 0 0 0 0 0 0 0 0 0 0 0 0 0 0 0 0 0 0 0 0 0 0 0 0 0 0 0 5 11 9 11 14 13 24
0 0 0 0 0 0 0 0 0 0 0 0 0 0 0 0 0 0 0 0 0 0 0 0 0 0 0 0 0 0 0 0 0 0 0 0 0 0 0 0 0 0 0 8 14 15 14 14 24
0 0 0 0 0 0 0 0 0 0 0 0 0 0 0 0 0 0 0 0 0 0 0 0 0 0 0 0 0 0 0 0 0 0 0 0 0 0 0 0 0 0 0 0 4 12 15 15 8
0 0 0 0 0 0 0 0 0 0 0 0 0 0 0 0 0 0 0 0 0 0 0 0 0 0 0 0 0 0 0 0 0 0 0 0 0 0 0 0 0 0 0 0 0 8 15 11 18
0 0 0 0 0 0 0 0 0 0 0 0 0 0 0 0 0 0 0 0 0 0 0 0 0 0 0 0 0 0 0 0 0 0 0 0 0 0 0 0 0 0 0 0 0 0 4 15 3
0 0 0 0 0 0 0 0 0 0 0 0 0 0 0 0 0 0 0 0 0 0 0 0 0 0 0 0 0 0 0 0 0 0 0 0 0 0 0 0 0 0 0 0 0 0 0 13 6

GFSSGP_con_mucape_069.txt.gz
CAPE
0 0 0 0 0 0 0 0 0 0 0 0 0 0 0 0 0 0 12 0 0 0 303 581 829 911 705 823 688 557 268 65 74 103 420 591 388 77 3 6 6 6 13 19 18 26 27 28 15
0 0 0 0 0 0 0 0 0 0 0 0 0 0 0 0 212 29 0 0 0 32 390 572 837 1106 810 762 531 315 115 46 48 85 437 545 226 29 10 6 8 6 13 23 28 28 35 22 19
0 0 0 0 0 0 0 0 0 0 0 0 0 0 0 32 127 0 10 0 1 110 427 570 859 1117 631 549 369 224 138 36 24 74 304 432 162 23 7 7 8 5 13 22 24 24 26 16 6
0 0 0 0 0 0 0 0 0 0 0 0 0 0 0 59 37 62 36 20 10 122 354 571 1010 1145 602 486 134 62 32 19 21 40 217 281 108 9 7 4 8 7 13 12 17 18 14 17 8
0 0 0 0 0 0 0 0 0 0 0 0 0 0 8 188 445 287 47 54 47 125 266 528 905 1037 835 627 260 134 56 0 24 15 146 175 81 8 5 6 9 9 14 11 20 26 40 30 33
0 0 0 0 0 0 0 0 0 0 0 0 0 0 108 406 484 301 105 82 67 135 271 500 717 806 719 672 577 398 172 106 57 46 75 113 8 7 4 6 9 8 7 7 27 33 38 34 37
0 0 0 0 0 0 0 0 0 0 0 0 0 0 17 372 455 363 333 386 326 193 361 424 495 602 562 469 340 321 169 96 88 87 107 66 21 6 4 6 6 5 12 6 23 11 8 15 5
0 0 0 0 0 0 0 0 0 0 0 0 0 0 2 324 452 387 396 442 419 403 336 361 410 464 496 326 261 195 85 16 16 18 0 0 0 0 0 1 5 3 10 11 7 2 0 0 0
0 0 0 0 0 0 0 0 0 0 0 0 0 0 0 362 486 481 474 483 494 438 343 330 379 374 420 304 246 165 33 0 0 0 0 0 0 0 0 0 4 6 12 6 5 1 0 0 0
0 0 0 0 0 0 0 0 0 0 0 0 0 0 0 400 479 483 394 362 438 430 417 300 362 379 370 346 253 130 5 0 0 0 0 0 0 0 0 0 0 2 5 4 0 0 0 0 0
0 0 0 0 0 0 0 0 0 0 0 0 0 0 4 262 414 447 242 244 359 381 378 239 263 339 365 345 250 153 35 0 0 0 0 0 0 0 0 0 0 0 0 0 0 0 0 0 0
0 0 0 0 0 0 0 0 0 0 0 0 0 0 16 189 297 377 353 204 210 285 257 191 204 250 319 300 264 113 46 0 0 0 0 0 0 0 0 0 0 0 0 0 0 0 0 0 0
0 0 0 0 0 0 0 0 0 0 0 0 0 0 0 92 183 317 331 315 273 190 148 154 157 187 227 229 171 281 271 24 1 0 0 0 0 0 0 0 0 0 0 0 0 0 0 0 0
0 0 0 0 0 0 0 0 0 0 0 0 0 0 0 0 51 110 199 246 288 247 140 122 108 144 154 161 107 112 403 273 29 2 0 0 0 0 0 0 0 0 1 0 0 0 0 0 0
0 0 0 0 0 0 0 0 0 0 0 0 0 0 0 0 0 3 99 111 181 206 221 184 150 115 90 82 82 82 46 140 111 26 2 0 0 0 0 0 5 3 6 3 1 2 2 0 2
0 0 0 0 0 0 0 0 0 0 0 0 0 0 0 0 0 0 0 0 55 135 181 259 198 183 175 129 90 38 67 43 13 10 16 4 7 13 3 7 8 5 3 3 4 3 3 2 2
0 0 0 0 0 0 0 0 0 0 0 0 0 0 0 0 0 0 0 0 0 0 70 122 233 200 190 161 147 121 99 58 9 9 3 5 7 120 14 17 9 8 7 16 10 12 3 8 6
0 0 0 0 0 0 0 0 0 0 0 0 0 0 0 0 0 0 0 0 0 0 0 48 139 202 184 147 138 163 175 128 23 9 10 16 45 12 78 9 15 10 11 22 9 21 12 8 5
0 0 0 0 0 0 0 0 0 0 0 0 0 0 0 0 0 0 0 0 0 0 0 0 27 150 212 171 182 227 258 245 180 62 23 32 21 99 78 30 24 33 47 40 14 28 32 14 7
0 0 0 0 0 0 0 0 0 0 0 0 0 0 0 0 0 0 0 0 0 0 0 0 0 0 23 126 225 279 320 331 277 165 65 65 64 145 134 89 127 61 43 46 40 11 16 19 17
0 0 0 0 0 0 0 0 0 0 0 0 0 0 0 0 0 0 0 0 0 0 0 0 0 0 0 7 25 38 136 228 272 288 234 166 27 277 168 133 135 134 114 98 86 28 28 22 8
0 0 0 0 0 0 0 0 0 0 0 0 0 0 0 0 0 0 0 0 0 0 0 0 0 0 0 1 22 33 27 54 53 68 62 31 0 157 40 117 32 24 27 42 98 100 34 55 18
0 0 0 0 0 0 0 0 0 0 0 0 0 0 0 0 0 0 0 0 0 0 0 0 0 0 0 0 6 22 41 45 64 51 53 7 3 33 25 14 23 13 29 12 11 41 62 22 46
0 0 0 0 0 0 0 0 0 0 0 0 0 0 0 0 0 0 0 0 0 0 0 0 0 0 0 0 0 0 0 17 48 69 38 0 0 0 0 10 20 33 98 50 21 36 26 18 17
0 0 0 0 0 0 0 0 0 0 0 0 0 0 0 0 0 0 0 0 0 0 0 0 0 0 0 0 0 0 0 0 2 0 0 0 0 0 0 0 0 1 3 6 22 13 11 13 24
0 0 0 0 0 0 0 0 0 0 0 0 0 0 0 0 0 0 0 0 0 0 0 0 0 0 0 0 0 0 0 0 0 0 0 0 0 0 0 0 0 0 2 5 19 19 22 10 13
0 0 0 0 0 0 0 0 0 0 0 0 0 0 0 0 0 0 0 0 0 0 0 0 0 0 0 0 0 0 0 0 0 0 0 0 0 0 0 0 0 0 0 0 4 8 0 0 0
0 0 0 0 0 0 0 0 0 0 0 0 0 0 0 0 0 0 0 0 0 0 0 0 0 0 0 0 0 0 0 0 0 0 0 0 0 0 0 0 0 0 0 0 0 0 0 0 0
0 0 0 0 0 0 0 0 0 0 0 0 0 0 0 0 0 0 0 0 0 0 0 0 0 0 0 0 0 0 0 0 0 0 0 0 0 0 0 0 0 0 0 0 0 0 0 0 0
0 0 0 0 0 0 0 0 0 0 0 0 0 0 0 0 0 0 0 0 0 0 0 0 0 0 0 0 0 0 0 0 0 0 0 0 0 0 0 0 0 0 0 0 0 0 0 0 0

GFSSGP_con_mucape_072.txt.gz
CAPE
0 0 0 0 0 0 0 0 0 0 0 0 0 0 0 0 0 0 22 12 1 240 423 581 907 882 853 765 692 437 319 166 344 743 740 394 94 48 7 6 6 19 18 12 21 32 21 13 15
0 0 0 0 0 0 0 0 0 0 0 0 0 0 0 0 115 1 9 0 47 221 469 656 790 967 954 861 733 474 265 142 391 769 662 260 70 19 9 8 7 23 18 13 31 35 24 16 17
0 0 0 0 0 0 0 0 0 0 0 0 0 0 0 0 47 0 0 0 31 257 439 625 812 1032 902 693 474 271 149 101 291 636 527 209 58 10 9 9 8 26 20 9 30 30 18 14 16
0 0 0 0 0 0 0 0 0 0 0 0 0 0 0 2 0 0 2 0 70 322 472 556 1047 805 474 434 173 68 71 56 126 440 311 121 16 10 7 11 10 29 18 10 14 24 15 9 14
0 0 0 0 0 0 0 0 0 0 0 0 0 0 4 23 95 28 0 0 78 316 425 688 994 787 598 357 114 74 87 59 60 288 281 108 7 7 5 9 11 14 21 9 29 34 24 30 39
0 0 0 0 0 0 0 0 0 0 0 0 0 0 56 130 284 25 3 5 78 205 335 585 819 624 540 474 302 177 157 175 95 222 154 18 5 5 5 5 6 9 12 12 51 44 44 45 52
0 0 0 0 0 0 0 0 0 0 0 0 0 0 0 235 336 20 7 5 47 148 342 507 651 537 435 355 247 159 122 144 124 182 137 36 11 9 8 8 4 9 5 9 9 19 28 14 19
0 0 0 0 0 0 0 0 0 0 0 0 0 0 0 175 271 97 45 33 54 164 306 406 515 482 311 208 147 52 10 47 44 34 0 0 0 5 2 2 7 8 9 11 9 3 1 0 0
0 0 0 0 0 0 0 0 0 0 0 0 0 0 0 127 285 183 190 246 247 195 262 310 356 418 238 163 117 11 0 0 0 0 0 0 0 0 0 0 4 18 7 7 6 2 1 0 0
0 0 0 0 0 0 0 0 0 0 0 0 0 0 0 166 270 231 222 305 259 298 283 225 292 336 307 164 104 16 0 0 0 0 0 0 0 0 0 0 0 5 7 9 3 0 0 0 0
0 0 0 0 0 0 0 0 0 0 0 0 0 0 0 180 255 247 272 319 350 377 301 222 220 255 302 205 135 50 0 0 0 0 0 0 0 0 0 0 0 0 0 0 0 0 0 0 0
0 0 0 0 0 0 0 0 0 0 0 0 0 0 0 194 235 236 255 264 270 299 292 264 177 192 238 364 260 71 7 0 0 0 0 0 0 0 0 0 0 0 0 0 0 0 0 0 0
0 0 0 0 0 0 0 0 0 0 0 0 0 0 0 100 185 241 265 186 145 203 251 278 159 138 260 275 375 319 43 0 0 0 0 0 0 0 0 0 0 0 0 0 0 0 0 0 0
0 0 0 0 0 0 0 0 0 0 0 0 0 0 0 2 29 125 207 227 103 133 188 220 145 110 121 250 329 236 242 3 0 0 0 0 0 0 0 0 0 0 0 1 0 0 0 0 0
0 0 0 0 0 0 0 0 0 0 0 0 0 0 0 0 0 1 58 162 211 140 133 123 108 100 87 77 89 117 321 303 154 0 0 0 0 0 0 0 3 0 2 4 2 1 2 1 2
0 0 0 0 0 0 0 0 0 0 0 0 0 0 0 0 0 0 0 3 96 152 163 168 89 67 54 59 49 37 60 131 138 82 0 8 7 14 5 5 5 5 7 3 3 3 5 7 5
0 0 0 0 0 0 0 0 0 0 0 0 0 0 0 0 0 0 0 0 0 0 14 86 115 84 68 62 59 51 10 1 71 78 0 4 5 23 73 3 8 7 7 17 7 6 10 9 5
0 0 0 0 0 0 0 0 0 0 0 0 0 0 0 0 0 0 0 0 0 0 0 2 34 91 145 105 71 64 46 29 7 6 0 0 1 4 14 7 7 14 6 17 21 30 6 20 39
0 0 0 0 0 0 0 0 0 0 0 0 0 0 0 0 0 0 0 0 0 0 0 0 0 10 66 133 99 81 75 66 43 48 24 2 4 6 13 115 19 13 32 31 42 52 4 10 21
0 0 0 0 0 0 0 0 0 0 0 0 0 0 0 0 0 0 0 0 0 0 0 0 0 0 12 62 118 129 102 79 65 96 103 96 278 91 7 10 9 31 22 18 34 38 28 47 13
0 0 0 0 0 0 0 0 0 0 0 0 0 0 0 0 0 0 0 0 0 0 0 0 0 0 0 30 80 99 116 98 69 87 186 214 123 16 57 74 12 53 88 77 57 37 49 42 16
0 0 0 0 0 0 0 0 0 0 0 0 0 0 0 0 0 0 0 0 0 0 0 0 0 0 0 0 41 77 49 43 34 32 48 146 250 292 255 121 20 54 44 43 53 29 15 41 45
0 0 0 0 0 0 0 0 0 0 0 0 0 0 0 0 0 0 0 0 0 0 0 0 0 0 0 0 0 2 13 13 8 5 10 11 14 35 70 62 17 33 31 15 25 26 31 43 64
0 0 0 0 0 0 0 0 0 0 0 0 0 0 0 0 0 0 0 0 0 0 0 0 0 0 0 0 0 0 0 0 10 19 20 22 19 38 17 17 30 29 9 22 27 21 25 32 54
0 0 0 0 0 0 0 0 0 0 0 0 0 0 0 0 0 0 0 0 0 0 0 0 0 0 0 0 0 0 0 0 0 0 0 0 0 0 0 6 8 10 15 22 17 20 23 38 51
0 0 0 0 0 0 0 0 0 0 0 0 0 0 0 0 0 0 0 0 0 0 0 0 0 0 0 0 0 0 0 0 0 0 0 0 0 0 0 0 0 0 0 7 11 13 8 8 5
0 0 0 0 0 0 0 0 0 0 0 0 0 0 0 0 0 0 0 0 0 0 0 0 0 0 0 0 0 0 0 0 0 0 0 0 0 0 0 0 0 0 0 0 1 4 0 3 7
0 0 0 0 0 0 0 0 0 0 0 0 0 0 0 0 0 0 0 0 0 0 0 0 0 0 0 0 0 0 0 0 0 0 0 0 0 0 0 0 0 0 0 0 0 0 0 0 0
0 0 0 0 0 0 0 0 0 0 0 0 0 0 0 0 0 0 0 0 0 0 0 0 0 0 0 0 0 0 0 0 0 0 0 0 0 0 0 0 0 0 0 0 0 0 0 0 0
0 0 0 0 0 0 0 0 0 0 0 0 0 0 0 0 0 0 0 0 0 0 0 0 0 0 0 0 0 0 0 0 0 0 0 0 0 0 0 0 0 0 0 0 0 0 0 0 0

GFSSGP_con_mucape_075.txt.gz
CAPE
0 0 0 0 0 0 0 0 0 0 0 0 0 0 0 0 0 0 11 9 49 341 568 827 902 882 922 696 609 548 616 586 912 866 436 131 29 8 3 7 72 26 13 23 21 12 15 13 11
0 0 0 0 0 0 0 0 0 0 0 0 0 0 0 0 19 0 8 0 177 375 532 668 828 1061 1013 862 647 483 502 614 939 769 319 111 16 10 5 10 71 29 30 59 29 12 15 7 5
0 0 0 0 0 0 0 0 0 0 0 0 0 0 0 0 0 0 0 0 194 406 565 633 874 1118 1010 824 580 456 415 600 923 615 245 67 17 7 4 10 56 20 26 34 21 16 7 17 25
0 0 0 0 0 0 0 0 0 0 0 0 0 0 0 0 0 0 0 21 227 384 545 684 960 946 688 499 246 224 119 401 720 466 120 15 6 4 3 13 19 17 19 24 11 13 12 27 27
0 0 0 0 0 0 0 0 0 0 0 0 0 0 0 0 0 0 0 48 198 346 453 803 668 653 552 373 194 209 173 258 490 293 99 2 3 4 3 9 14 9 16 7 29 11 22 46 58
0 0 0 0 0 0 0 0 0 0 0 0 0 0 0 48 0 0 0 31 179 337 458 779 476 372 363 291 228 232 254 276 564 334 81 0 4 5 6 6 8 6 6 40 32 31 48 57 43
0 0 0 0 0 0 0 0 0 0 0 0 0 0 0 76 29 0 0 0 110 235 399 615 535 277 183 101 64 98 200 151 372 325 102 45 10 12 5 10 14 6 22 49 46 34 29 42 29
0 0 0 0 0 0 0 0 0 0 0 0 0 0 0 83 96 0 0 0 55 157 260 410 471 278 287 186 8 0 12 32 42 5 0 0 0 0 0 0 15 7 18 7 23 7 10 18 15
0 0 0 0 0 0 0 0 0 0 0 0 0 0 0 138 91 0 0 0 25 87 167 257 347 251 177 105 0 0 0 0 0 0 0 0 0 0 0 0 10 13 11 12 12 2 0 0 0
0 0 0 0 0 0 0 0 0 0 0 0 0 0 0 120 66 0 0 0 14 51 127 188 284 247 116 61 14 0 0 0 0 0 0 0 0 0 0 0 1 4 2 12 6 0 0 0 0
0 0 0 0 0 0 0 0 0 0 0 0 0 0 0 82 89 13 6 8 49 72 123 167 164 265 141 50 1 0 0 0 0 0 0 0 0 0 0 0 0 0 3 1 0 0 0 0 0
0 0 0 0 0 0 0 0 0 0 0 0 0 0 0 24 72 60 13 46 98 83 169 164 135 314 293 73 13 1 0 0 0 0 0 0 0 0 0 0 0 0 0 0 0 0 0 0 0
0 0 0 0 0 0 0 0 0 0 0 0 0 0 0 2 21 65 48 43 117 136 314 155 109 195 348 520 211 12 0 0 0 0 0 0 0 0 0 0 0 0 0 0 0 0 0 0 0
0 0 0 0 0 0 0 0 0 0 0 0 0 0 0 0 2 27 35 59 121 109 131 154 145 91 211 214 290 189 19 0 0 0 0 0 0 0 0 0 0 0 0 0 0 0 0 0 0
0 0 0 0 0 0 0 0 0 0 0 0 0 0 0 0 0 0 14 53 106 65 52 91 142 115 127 360 267 259 169 88 0 0 0 0 0 0 0 0 0 0 0 2 1 2 0 0 1
0 0 0 0 0 0 0 0 0 0 0 0 0 0 0 0 0 0 0 0 48 80 30 42 87 112 63 142 223 200 175 88 2 7 0 0 0 4 5 2 2 3 6 7 3 0 3 2 2
0 0 0 0 0 0 0 0 0 0 0 0 0 0 0 0 0 0 0 0 0 19 64 52 56 58 47 38 47 113 87 41 87 10 44 0 0 2 4 9 5 5 3 15 4 10 17 15 3
0 0 0 0 0 0 0 0 0 0 0 0 0 0 0 0 0 0 0 0 0 0 1 31 58 78 100 70 30 28 80 97 177 137 50 7 0 1 1 7 4 3 5 11 24 25 8 7 19
0 0 0 0 0 0 0 0 0 0 0 0 0 0 0 0 0 0 0 0 0 0 0 0 0 3 51 75 86 82 77 59 96 191 175 112 5 13 41 12 3 15 17 22 16 27 42 37 20
0 0 0 0 0 0 0 0 0 0 0 0 0 0 0 0 0 0 0 0 0 0 0 0 0 0 0 29 70 113 106 94 70 96 201 52 44 30 135 76 53 31 8 28 30 39 14 30 41
0 0 0 0 0 0 0 0 0 0 0 0 0 0 0 0 0 0 0 0 0 0 0 0 0 0 0 0 13 46 82 112 101 145 249 156 81 120 109 27 10 17 45 30 36 50 19 23 35
0 0 0 0 0 0 0 0 0 0 0 0 0 0 0 0 0 0 0 0 0 0 0 0 0 0 0 0 6 20 32 79 65 90 30 29 42 71 174 234 184 131 47 22 39 24 61 39 27
0 0 0 0 0 0 0 0 0 0 0 0 0 0 0 0 0 0 0 0 0 0 0 0 0 0 0 0 0 14 35 58 67 47 31 20 5 13 50 124 96 120 141 41 38 33 50 41 20
0 0 0 0 0 0 0 0 0 0 0 0 0 0 0 0 0 0 0 0 0 0 0 0 0 0 0 0 0 0 0 14 26 15 7 2 1 3 0 1 16 34 16 18 23 28 29 36 44
0 0 0 0 0 0 0 0 0 0 0 0 0 0 0 0 0 0 0 0 0 0 0 0 0 0 0 0 3 4 4 3 1 0 0 0 0 0 0 0 3 7 12 12 16 11 16 4 6
0 0 0 0 0 0 0 0 0 0 0 0 0 0 0 0 0 0 0 0 0 0 0 0 0 0 0 0 0 0 0 0 0 0 0 0 0 0 0 0 0 0 0 2 7 12 12 11 3
0 0 0 0 0 0 0 0 0 0 0 0 0 0 0 0 0 0 0 0 0 0 0 0 0 0 0 0 0 0 0 0 0 0 0 0 0 0 0 0 0 0 0 0 0 0 0 0 0
0 0 0 0 0 0 0 0 0 0 0 0 0 0 0 0 0 0 0 0 0 0 0 0 0 0 0 0 0 0 0 0 0 0 0 0 0 0 0 0 0 0 0 0 0 0 0 0 0
0 0 0 0 0 0 0 0 0 0 0 0 0 0 0 0 0 0 0 0 0 0 0 0 0 0 0 0 0 0 0 0 0 0 0 0 0 0 0 0 0 0 0 0 0 0 0 0 0
0 0 0 0 0 0 0 0 0 0 0 0 0 0 0 0 0 0 0 0 0 0 0 0 0 0 0 0 0 0 0 0 0 0 0 0 0 0 0 0 0 0 0 0 0 0 0 0 0

GFSSGP_con_mucape_078.txt.gz
CAPE
0 0 0 0 0 0 0 0 0 0 0 0 0 0 0 0 0 0 45 83 343 441 568 910 908 956 581 620 575 831 778 839 694 465 235 24 7 8 13 15 41 61 12 13 16 15 18 9 10
0 0 0 0 0 0 0 0 0 0 0 0 0 0 0 0 60 57 116 48 315 449 688 473 823 1009 926 767 645 504 580 823 616 382 134 9 4 7 11 25 53 94 48 21 9 17 11 8 10
0 0 0 0 0 0 0 0 0 0 0 0 0 0 0 0 15 74 29 168 316 521 725 563 919 1042 924 757 649 588 715 936 662 239 60 3 3 5 14 33 18 77 36 25 21 11 30 21 17
0 0 0 0 0 0 0 0 0 0 0 0 0 0 0 0 20 13 29 260 360 574 619 613 979 1016 791 591 366 261 716 876 547 170 8 1 2 2 13 29 24 25 33 16 10 24 29 31 40
0 0 0 0 0 0 0 0 0 0 0 0 0 0 0 22 0 0 42 232 401 596 732 545 752 688 584 475 235 254 686 811 422 88 3 2 2 1 9 16 10 16 27 18 6 19 37 45 39
0 0 0 0 0 0 0 0 0 0 0 0 0 0 0 74 0 24 60 242 372 505 762 495 302 309 350 325 351 353 534 789 547 84 0 2 3 2 7 3 1 12 44 32 21 33 50 42 38
0 0 0 0 0 0 0 0 0 0 0 0 0 0 0 113 53 31 59 200 292 429 638 614 147 21 63 55 79 208 276 589 490 187 33 8 14 13 8 17 6 28 54 44 51 50 59 48 38
0 0 0 0 0 0 0 0 0 0 0 0 0 0 0 69 53 28 69 169 278 438 611 647 431 28 51 32 0 9 19 90 70 0 0 0 0 0 0 1 9 11 22 44 27 36 43 34 17
0 0 0 0 0 0 0 0 0 0 0 0 0 0 0 107 23 27 31 116 227 318 435 508 474 234 108 38 0 0 0 0 0 0 0 0 0 0 0 0 4 9 4 22 13 1 1 2 0
0 0 0 0 0 0 0 0 0 0 0 0 0 0 9 106 36 29 7 18 135 219 247 275 470 397 205 16 2 3 3 2 2 0 0 0 0 0 0 1 0 0 8 20 2 0 0 0 10
0 0 0 0 0 0 0 0 0 0 0 0 0 0 19 127 48 43 20 0 43 127 173 192 275 333 272 79 38 5 4 3 3 1 0 0 0 0 0 7 8 6 4 9 0 0 0 0 0
0 0 0 0 0 0 0 0 0 0 0 0 0 0 0 83 61 11 18 19 20 86 90 78 131 250 208 109 60 25 2 1 0 1 0 0 0 0 0 0 2 4 0 1 0 0 0 0 0
0 0 0 0 0 0 0 0 0 0 0 0 0 0 0 30 65 38 18 12 53 88 69 3 78 96 236 83 21 10 14 0 0 0 0 0 0 0 0 0 0 0 0 0 0 0 0 0 0
0 0 0 0 0 0 0 0 0 0 0 0 0 0 0 0 17 109 97 83 87 95 73 27 130 75 16 31 100 3 6 4 0 0 0 0 0 0 0 0 0 0 0 0 0 0 0 0 0
0 0 0 0 0 0 0 0 0 0 0 0 0 0 0 0 0 27 88 103 122 150 140 56 184 93 55 38 59 23 17 6 6 0 0 0 0 0 0 0 0 1 0 0 0 0 0 0 0
0 0 0 0 0 0 0 0 0 0 0 0 0 0 0 0 0 0 8 70 83 144 173 176 105 80 88 49 40 64 112 45 44 3 1 0 0 0 2 1 3 2 2 0 0 3 2 2 2
0 0 0 0 0 0 0 0 0 0 0 0 0 0 0 0 0 0 0 0 45 59 89 102 141 114 104 116 68 60 105 141 56 123 1 0 0 0 0 1 5 5 1 4 2 4 4 3 2
0 0 0 0 0 0 0 0 0 0 0 0 0 0 0 0 0 0 0 0 0 1 39 72 78 158 106 149 215 149 214 245 90 101 2 0 3 0 0 0 0 11 8 6 8 4 7 8 12
0 0 0 0 0 0 0 0 0 0 0 0 0 0 0 0 0 0 0 0 0 0 0 0 61 71 153 81 231 306 266 192 117 87 18 22 23 2 5 6 8 4 9 6 14 25 33 32 25
0 0 0 0 0 0 0 0 0 0 0 0 0 0 0 0 0 0 0 0 0 0 0 0 0 36 95 115 61 80 179 111 159 92 124 135 137 93 44 8 38 7 6 12 16 11 5 27 41
0 0 0 0 0 0 0 0 0 0 0 0 0 0 0 0 0 0 0 0 0 0 0 0 0 0 24 71 72 189 73 95 72 47 179 218 178 288 231 114 98 39 23 20 20 8 37 25 11
0 0 0 0 0 0 0 0 0 0 0 0 0 0 0 0 0 0 0 0 0 0 0 0 0 0 0 12 25 71 62 92 90 184 137 137 142 128 60 233 160 110 131 141 82 107 76 75 14
0 0 0 0 0 0 0 0 0 0 0 0 0 0 0 0 0 0 0 0 0 0 0 0 0 0 0 1 20 23 112 115 53 90 77 44 24 11 0 9 11 73 131 182 86 49 23 41 44
0 0 0 0 0 0 0 0 0 0 0 0 0 0 0 0 0 0 0 0 0 0 0 0 0 0 0 2 7 10 31 41 54 11 20 26 9 0 0 2 15 20 13 15 15 27 27 30 29
0 0 0 0 0 0 0 0 0 0 0 0 0 0 0 0 0 0 0 0 0 0 0 0 0 1 1 3 3 3 2 4 4 2 2 3 0 0 0 0 1 1 3 4 5 9 10 8 6
0 0 0 0 0 0 0 0 0 0 0 0 0 0 0 0 0 0 0 0 0 0 0 0 0 0 0 0 0 1 5 0 0 0 0 0 2 0 0 0 0 0 0 2 6 5 6 4 4
0 0 0 0 0 0 0 0 0 0 0 0 0 0 0 0 0 0 0 0 0 0 0 0 0 0 0 0 0 0 0 0 0 0 0 0 0 0 0 0 0 0 0 0 0 0 0 4 0
0 0 0 0 0 0 0 0 0 0 0 0 0 0 0 0 0 0 0 0 0 0 0 0 0 0 0 0 0 0 0 0 0 0 0 0 0 0 0 0 0 0 0 0 0 0 0 0 0
0 0 0 0 0 0 0 0 0 0 0 0 0 0 0 0 0 0 0 0 0 0 0 0 0 0 0 0 0 0 0 0 0 0 0 0 0 0 0 0 0 0 0 0 0 0 0 0 0
0 0 0 0 0 0 0 0 0 0 0 0 0 0 0 0 0 0 0 0 0 0 0 0 0 0 0 0 0 0 0 0 0 0 0 0 0 0 0 0 0 0 0 0 0 0 0 0 0

GFSSGP_con_mucape_084.txt.gz
CAPE
0 0 0 0 0 0 0 0 0 0 0 0 0 0 0 0 7 218 218 440 236 351 670 723 890 928 747 962 1021 1014 1033 741 273 3 9 17 21 13 29 22 35 24 16 11 14 13 6 13 43
0 0 0 0 0 0 0 0 0 0 0 0 0 0 0 0 42 131 230 300 317 280 313 462 696 828 778 1055 1011 850 1066 732 149 0 8 24 19 52 173 19 58 17 11 10 9 10 4 26 46
0 0 0 0 0 0 0 0 0 0 0 0 0 0 0 0 23 73 227 506 138 44 168 441 642 744 736 953 939 813 945 693 67 0 7 9 10 5 108 26 3 10 12 14 10 1 26 34 30
0 0 0 0 0 0 0 0 0 0 0 0 0 0 0 8 26 138 232 23 5 35 231 601 830 773 736 928 1045 796 925 517 29 2 6 22 11 0 6 32 25 6 16 10 6 11 34 30 22
0 0 0 0 0 0 0 0 0 0 0 0 0 0 0 5 69 107 75 63 93 47 345 529 716 713 716 898 1014 862 862 280 0 2 8 20 10 0 0 24 13 0 6 14 34 30 25 33 20
0 0 0 0 0 0 0 0 0 0 0 0 0 0 0 0 44 78 85 168 198 40 282 374 291 277 397 617 779 722 690 346 29 10 8 14 10 0 0 5 29 4 14 25 42 24 21 17 5
0 0 0 0 0 0 0 0 0 0 0 0 0 0 0 0 23 87 82 215 232 135 42 59 11 16 28 20 154 501 406 193 44 15 17 16 17 6 0 16 37 26 35 39 36 23 16 7 0
0 0 0 0 0 0 0 0 0 0 0 0 0 0 0 0 3 60 93 149 259 132 0 0 0 0 0 0 0 24 11 9 0 0 0 0 0 0 0 0 24 34 26 23 31 27 13 0 0
0 0 0 0 0 0 0 0 0 0 0 0 0 0 0 0 0 23 90 91 214 168 147 2 0 0 0 0 0 0 0 0 0 0 0 0 0 0 0 0 0 7 6 0 0 0 0 0 0
0 0 0 0 0 0 0 0 0 0 0 0 0 26 4 0 0 10 85 96 106 171 144 553 66 0 0 0 0 0 0 0 0 0 0 0 0 0 0 0 0 0 0 0 0 0 0 0 0
0 0 0 0 0 0 0 0 0 0 0 0 0 4 8 0 0 0 43 65 90 100 156 132 98 2 1 0 0 0 0 0 1 0 0 0 0 0 0 0 0 0 0 0 0 0 0 0 0
0 0 0 0 0 0 0 0 0 0 0 0 0 0 0 0 0 0 4 34 53 87 76 100 100 49 3 0 0 0 0 1 0 0 0 0 0 0 0 0 0 0 0 0 0 0 0 0 0
0 0 0 0 0 0 0 0 0 0 0 0 0 0 0 0 0 0 0 5 24 53 68 64 44 199 53 2 1 3 0 0 0 0 0 0 0 0 0 0 0 0 0 0 0 0 0 0 0
0 0 0 0 0 0 0 0 0 0 0 0 0 0 0 0 0 0 0 0 0 12 43 43 41 97 45 117 13 15 5 2 0 0 0 0 0 0 0 0 0 0 0 0 0 0 0 0 0
0 0 0 0 0 0 0 0 0 0 0 0 0 0 0 0 0 0 0 0 0 0 1 56 24 206 58 227 63 2 0 3 10 0 0 0 0 0 0 0 0 0 0 0 0 0 0 0 0
0 0 0 0 0 0 0 0 0 0 0 0 0 0 0 0 0 0 0 0 0 0 0 43 38 2 51 242 239 129 4 0 2 19 3 0 0 0 0 0 0 0 0 0 0 0 0 0 0
0 0 0 0 0 0 0 0 0 0 0 0 0 0 0 0 0 0 0 0 0 0 0 24 28 17 12 193 170 231 8 129 90 33 1 2 1 0 0 0 0 0 0 0 0 2 0 0 1
0 0 0 0 0 0 0 0 0 0 0 0 0 0 0 0 0 0 0 0 0 0 0 12 39 17 0 65 261 200 172 136 141 63 67 71 63 9 0 0 0 0 0 0 1 4 1 3 4
0 0 0 0 0 0 0 0 0 0 0 0 0 0 0 0 0 0 0 0 0 0 0 12 73 113 75 9 254 138 192 109 72 134 54 77 103 129 138 65 10 5 1 6 5 9 7 9 25
0 0 0 0 0 0 0 0 0 0 0 0 0 0 0 0 0 0 0 0 0 0 0 0 13 55 107 67 5 125 164 124 125 87 49 76 109 189 287 134 30 38 8 35 26 29 28 25 40
0 0 0 0 0 0 0 0 0 0 0 0 0 0 0 0 0 0 0 0 0 0 0 0 0 24 79 144 96 17 92 7 27 22 40 55 68 57 39 5 20 49 10 18 21 24 40 49 22
0 0 0 0 0 0 0 0 0 0 0 0 0 0 0 0 0 0 0 0 0 0 0 0 0 0 13 70 83 5 5 2 16 44 47 16 43 52 14 56 10 8 2 4 4 18 19 31 43
0 0 0 0 0 0 0 0 0 0 0 0 0 0 0 0 0 0 0 0 0 0 0 0 0 0 0 8 58 43 144 33 5 17 27 113 5 6 5 4 8 7 8 6 9 7 28 34 11
0 0 0 0 0 0 0 0 0 0 0 0 0 0 0 0 0 0 0 0 0 0 0 0 0 0 0 0 8 34 40 5 14 5 7 5 18 7 8 7 7 7 9 6 9 24 27 30 24
0 0 0 0 0 0 0 0 0 0 0 0 0 0 0 0 0 0 0 0 0 0 0 0 0 0 0 0 1 3 3 6 5 6 5 4 4 6 3 0 0 0 1 1 3 4 8 10 17
0 0 0 0 0 0 0 0 0 0 0 0 0 0 0 0 0 0 0 0 0 0 0 0 0 0 0 0 0 0 5 4 5 3 1 0 0 0 0 0 0 0 0 0 0 0 0 0 0
0 0 0 0 0 0 0 0 0 0 0 0 0 0 0 0 0 0 0 0 0 0 0 0 0 0 0 0 0 0 0 0 0 0 0 0 0 0 0 0 0 0 0 0 0 0 0 0 0
0 0 0 0 0 0 0 0 0 0 0 0 0 0 0 0 0 0 0 0 0 0 0 0 0 0 0 0 0 0 0 0 0 0 0 0 0 0 0 0 0 0 0 0 0 0 0 0 0
0 0 0 0 0 0 0 0 0 0 0 0 0 0 0 0 0 0 0 0 0 0 0 0 0 0 0 0 0 0 0 0 0 0 0 0 0 0 0 0 0 0 0 0 0 0 0 0 0
0 0 0 0 0 0 0 0 0 0 0 0 0 0 0 0 0 0 0 0 0 0 0 0 0 0 0 0 0 0 0 0 0 0 0 0 0 0 0 0 0 0 0 0 0 0 0 0 0

GFSSGP_con_mucape_087.txt.gz
CAPE
0 0 0 0 0 0 0 0 0 0 0 0 0 0 0 0 58 17 236 330 323 556 616 673 980 974 899 1062 1019 1082 937 483 38 24 51 15 71 31 4 6 23 24 12 17 23 28 33 79 51
0 0 0 0 0 0 0 0 0 0 0 0 0 0 0 0 40 110 186 256 388 493 484 603 740 935 991 1029 1005 1035 831 407 19 33 12 33 315 69 18 10 32 18 15 17 20 26 59 43 41
0 0 0 0 0 0 0 0 0 0 0 0 0 0 0 0 23 99 154 201 253 298 322 382 655 862 886 1016 818 861 695 350 4 12 20 16 155 69 24 16 17 21 14 12 30 38 46 37 28
0 0 0 0 0 0 0 0 0 0 0 0 0 0 0 0 34 100 116 67 46 150 253 442 730 820 919 1033 756 769 608 66 4 15 13 15 21 31 23 5 15 32 22 24 31 35 48 26 14
0 0 0 0 0 0 0 0 0 0 0 0 0 0 0 26 72 59 21 4 34 128 255 368 558 743 1008 946 767 674 437 24 3 10 16 3 0 10 32 4 3 21 32 31 22 24 22 10 0
0 0 0 0 0 0 0 0 0 0 0 0 0 0 0 44 62 8 0 7 41 147 232 231 155 258 584 721 702 556 370 146 4 5 19 11 0 1 17 19 11 17 28 23 10 12 9 0 0
0 0 0 0 0 0 0 0 0 0 0 0 0 0 0 17 18 47 33 1 92 115 81 31 35 39 119 315 403 251 155 48 8 14 14 13 5 0 23 42 35 31 28 24 14 10 0 0 0
0 0 0 0 0 0 0 0 0 0 0 0 0 0 0 0 35 106 85 50 28 0 0 0 0 0 0 1 53 0 0 0 0 0 0 0 0 0 0 0 26 18 16 14 8 10 0 0 0
0 0 0 0 0 0 0 0 0 0 0 0 0 0 0 12 8 138 137 132 54 12 0 0 0 0 0 0 0 0 0 0 0 0 0 0 0 0 0 0 2 7 0 0 0 0 0 0 0
0 0 0 0 0 0 0 0 0 0 0 0 0 0 0 12 1 47 118 114 48 35 0 0 0 0 0 0 0 0 0 0 0 0 0 0 0 0 0 0 0 0 0 0 0 0 0 0 0
0 0 0 0 0 0 0 0 0 0 0 0 0 0 0 0 0 21 31 62 34 22 23 0 0 0 0 0 0 0 0 0 0 0 0 0 0 0 0 0 0 0 0 0 0 0 0 0 0
0 0 0 0 0 0 0 0 0 0 0 0 0 0 0 0 0 11 26 28 16 30 34 94 3 2 0 0 0 0 0 0 0 0 0 0 0 0 0 0 0 0 0 0 0 0 0 0 0
0 0 0 0 0 0 0 0 0 0 0 0 0 0 0 0 0 6 10 21 9 2 17 10 16 3 2 0 0 0 0 0 0 0 0 0 0 0 0 0 0 0 0 0 0 0 0 0 0
0 0 0 0 0 0 0 0 0 0 0 0 0 0 0 0 0 0 3 8 16 7 3 19 0 3 20 1 0 1 2 0 0 0 0 0 0 0 0 0 0 0 0 0 0 0 0 0 0
0 0 0 0 0 0 0 0 0 0 0 0 0 0 0 0 0 0 0 0 8 20 20 16 20 15 4 44 2 6 2 2 3 0 0 0 0 0 0 0 0 0 0 0 0 0 0 0 0
0 0 0 0 0 0 0 0 0 0 0 0 0 0 0 0 0 0 0 0 0 0 22 21 27 26 1 5 155 3 2 1 0 2 1 0 0 0 0 0 0 0 0 0 0 0 0 0 0
0 0 0 0 0 0 0 0 0 0 0 0 0 0 0 0 0 0 0 0 0 0 0 0 2 0 0 5 89 85 2 1 3 2 2 4 1 0 0 0 0 0 0 0 0 0 0 1 1
0 0 0 0 0 0 0 0 0 0 0 0 0 0 0 0 0 0 0 0 0 0 0 0 2 19 17 1 36 99 94 102 76 54 49 29 17 7 0 0 0 0 2 4 0 5 9 5 1
0 0 0 0 0 0 0 0 0 0 0 0 0 0 0 0 0 0 0 0 0 0 0 0 0 4 12 0 71 135 119 58 57 167 13 65 30 38 88 142 4 26 0 8 4 13 9 20 29
0 0 0 0 0 0 0 0 0 0 0 0 0 0 0 0 0 0 0 0 0 0 0 0 0 0 0 0 1 76 24 14 11 20 27 34 21 7 83 4 7 19 17 19 27 45 12 48 44
0 0 0 0 0 0 0 0 0 0 0 0 0 0 0 0 0 0 0 0 0 0 0 0 10 34 30 23 9 3 24 18 7 10 19 23 33 28 51 6 17 24 20 18 26 13 20 46 24
0 0 0 0 0 0 0 0 0 0 0 0 0 0 0 0 0 0 0 0 0 0 0 0 0 19 85 48 40 7 3 4 10 14 7 12 9 9 9 7 8 9 12 9 7 11 38 28 37
0 0 0 0 0 0 0 0 0 0 0 0 0 0 0 0 0 0 0 0 0 0 0 0 0 0 10 116 85 10 28 5 6 9 9 9 8 9 23 8 8 25 34 11 10 29 36 39 32
0 0 0 0 0 0 0 0 0 0 0 0 0 0 0 0 0 0 0 0 0 0 0 0 0 0 0 42 40 68 7 7 5 6 9 16 24 26 17 6 5 3 1 2 2 4 5 6 11
0 0 0 0 0 0 0 0 0 0 0 0 0 0 0 0 0 0 0 0 0 0 0 0 0 0 0 0 9 9 8 1 8 3 7 6 4 2 2 1 0 0 0 0 0 0 0 0 0
0 0 0 0 0 0 0 0 0 0 0 0 0 0 0 0 0 0 0 0 0 0 0 0 0 0 0 0 6 3 1 4 3 3 3 3 1 0 0 0 0 0 0 0 0 0 0 0 0
0 0 0 0 0 0 0 0 0 0 0 0 0 0 0 0 0 0 0 0 0 0 0 0 0 0 0 0 0 0 0 2 1 0 0 0 0 0 0 0 0 0 0 0 0 0 0 0 0
0 0 0 0 0 0 0 0 0 0 0 0 0 0 0 0 0 0 0 0 0 0 0 0 0 0 0 0 0 0 0 0 0 0 0 0 0 0 0 0 0 0 0 0 0 0 0 0 0
0 0 0 0 0 0 0 0 0 0 0 0 0 0 0 0 0 0 0 0 0 0 0 0 0 0 0 0 0 0 0 0 0 0 0 0 0 0 0 0 0 0 0 0 0 0 0 0 0
0 0 0 0 0 0 0 0 0 0 0 0 0 0 0 0 0 0 0 0 0 0 0 0 0 0 0 0 0 0 0 0 0 0 0 0 0 0 0 0 0 0 0 0 0 0 0 0 0